Location: Gaast
(52.9002°N, 5.8891°E)
Time: 02:03:01
(UTC+00:00)

CZ-4C R/B - Pass Details

Date: 18 November 2025
Orbit: 487 x 1493 km, 63.4° (Epoch: 15 December)

Event Time Altitude Azimuth Distance (km) Brightness Sun altitude
Rises 18:44:39 0° 291° (WNW) 3,174 6.3 -27.8°
Reaches altitude 10° 18:47:03 10° 303° (WNW) 2,391 5.3 -28.2°
Maximum altitude 18:52:02 32° 6° (N) 1,592 3.5 -28.9°
Enters shadow 18:52:24 31° 12° (NNE) 1,614 3.5 -29.0°
